Other Public Products
Issued by NWS Grand Forks, ND

Home | Current Version | Previous Version | Graphics & Text | Print | Product List | Glossary On
Versions: 1 2 3 4 5 6 7 8 9 10 11 12 13 14 15 16 17 18 19 20 21 22 23 24 25 26 27 28 29 30 31 32 33 34 35 36 37 38 39 40 41 42 43 44 45 46 47 48 49 50
749
FPUS83 KFGF 280231
OPUFGF
PRAIRIE TO PINES WEATHER ROUNDUP
NATIONAL WEATHER SERVICE EASTERN NORTH DAKOTA/GRAND FORKS ND
900 PM CDT SAT AUG 27 2016

 **SATELLITE DATA USED TO AUGMENT SKY COVER AT AUTOMATED STATIONS**
 *****  WEATHER ACROSS EASTERN NORTH DAKOTA  *****

CITY           SKY/WX    TMP DP  RH WIND       PRES   REMARKS
GRAND FORKS    CLEAR     62  57  83 S7        29.92R
GRAND FORKS AF CLEAR     59  55  88 S6        29.93R
GRAND CITY NWS   N/A     59 N/A N/A S10         N/A
BUXTON           N/A     60  60  99 S5          N/A
DEVILS LAKE    CLEAR     66  56  70 SE5       29.91
FARGO          MOCLDY    63  56  78 E9        29.97R
WAHPETON ARPT  CLOUDY    63  55  77 SE7       29.99R
$$

 *****  WEATHER ACROSS CENTRAL AND WESTERN NORTH DAKOTA  *****

CITY           SKY/WX    TMP DP  RH WIND       PRES   REMARKS
JAMESTOWN      CLEAR     64  62  93 E8        29.92R
BISMARCK       CLEAR     63  54  72 SE6       29.88S
MINOT          CLEAR     68  46  45 SE7       29.85S
MINOT AFB      CLEAR     64  46  50 E6        29.85R
GARRISON         N/A     65  48  54 E7        29.86S
WILLISTON      CLEAR     75  43  31 SE7       29.79S
DICKINSON      CLEAR     66  43  43 SE12      29.85S
HETTINGER      CLOUDY    69  48  47 SE7       29.89R
$$

 *****  OTHER OBSERVATIONS NORTHEAST NORTH DAKOTA  *****

CITY           SKY/WX    TMP DP  RH WIND       PRES   REMARKS
WALHALLA       FAIR      59  59 100 E3        29.92R
LANGDON        FAIR      59  57  94 SE10      29.93R
CAVALIER       FAIR      59  57  94 S5        29.92R
GRAFTON        FAIR      59  59 100 SE6       29.95R
CANDO          FAIR      59  54  82 SE5       29.93R
FORT TOTTEN      N/A     63  53  70 E3        29.95S
ROLLA          FAIR      55  52  88 CALM      29.92S
RUGBY          FAIR      59  52  77 E6        29.90R
 ***** THE ABOVE OBSERVATIONS ARE NON NWS ARE NOT QUALITY
        CONTROLLED AND MAY MIS-REPORT RAIN FOR SNOW...
$$

 *****  OTHER OBSERVATIONS SOUTHEAST NORTH DAKOTA *****

CITY           SKY/WX    TMP DP  RH WIND       PRES   REMARKS
COOPERSTOWN    NOT AVBL
VALLEY CITY    FAIR      64  63  94 SE6       29.97R
OAKES            N/A    N/A N/A N/A MISG        N/A
GWINNER        FAIR      63  61  94 SE5       29.95R
SHEYENNE NWR     N/A     67  62  84 SE7       29.95
BUFFALO          N/A     62  57  84 E9          N/A
WYNDMERE         N/A     66  61  82 SE5         N/A
 ***** THE ABOVE OBSERVATIONS ARE NON NWS ARE NOT QUALITY
       CONTROLLED AND MAY MIS-REPORT RAIN FOR SNOW...
$$

  *****  WEATHER ACROSS NORTHERN MINNESOTA  *****

CITY           SKY/WX    TMP DP  RH WIND       PRES   REMARKS
FLAG ISLAND    MOCLDY    63  57  82 SE5       29.96R
WARROAD        MOCLDY    57  54  88 SE5       29.98R
ROSEAU         CLEAR     59  54  82 CALM      29.97R
HALLOCK        CLEAR     61  57  88 SE7       29.93R
THF RVR FALLS  CLEAR     61  58  90 SE7       29.97R
HALSTAD          N/A     62  59  91 S13         N/A
FOSSTON        PTCLDY    54  54 100 E5        29.99R
BAUDETTE       MOCLDY    58  56  93 SE5       29.98R
WASKISH        CLOUDY    55  54  94 E5        30.00R
CROOKSTON      CLEAR     59  55  88 S3        29.96R
$$
  *****  WEATHER ACROSS CENTRAL AND WEST MINNESOTA  *****

CITY           SKY/WX    TMP DP  RH WIND       PRES   REMARKS
BEMIDJI        CLOUDY    57  55  92 SE8       29.99R
PARK RAPIDS    CLOUDY    65  58  78 S6        30.00S
WADENA         CLEAR     57  55  94 CALM      30.03R
DETROIT LAKES  LGT RAIN  63  59  88 S12       30.00S
MOORHEAD       CLOUDY    64  57  77 E7        29.99S
FERGUS FALLS   CLOUDY    63  61  94 SE5       30.02R
ELBOW LAKE     FAIR      61  59  92 SE9       30.01R
MORRIS MN      CLEAR     63  61  94 E6        30.01R
STAPLES        CLEAR     61  57  88 E3        30.03R
WHEATON        CLEAR     64  61  88 SE8       30.00R
$$
  *****  WEATHER ELSEWHERE ACROSS MINNESOTA  *****

CITY           SKY/WX    TMP DP  RH WIND       PRES   REMARKS
DULUTH         CLOUDY    58  56  93 N9        30.06R
INTRNTL FALLS  TSTM      54  53  97 SE5       30.02R FOG
ELY            LGT RAIN  55  55 100 E3        30.05F
CLOQUET        RAIN      61  57  88 N3        30.06R
BRAINERD       MOCLDY    60  58  92 SE3       30.04R
HIBBING        MOCLDY    53  53 100 S3        30.05R
ALEXANDRIA     CLEAR     61  58  90 SE3       30.03R
SAINT CLOUD    MOCLDY    60  60 100 E3        30.05R
MINNEAPOLIS    PTCLDY    67  61  81 CALM      30.03R
$$

  *****  WEATHER ACROSS SOUTH DAKOTA  *****

CITY           SKY/WX    TMP DP  RH WIND       PRES   REMARKS
SIOUX FALLS    PTCLDY    72  65  78 SE8       30.00R
BROOKINGS      CLEAR     68  63  84 S9        29.99R
WATERTOWN      CLEAR     69  62  78 S8        29.98R
HURON          CLEAR     73  63  70 SE9       29.93R
SISSETON         N/A     66  62  87 SE7       29.96R
ABERDEEN       PTCLDY    67  61  81 SE8       29.92R
MITCHELL       CLEAR     73  64  73 SE9       29.95R
PIERRE         PTCLDY    73  56  54 E7        29.88S
MOBRIDGE       MOCLDY    69  56  62 SE9G18    29.88S
RAPID CITY     PTCLDY    70  51  51 SE5       29.90S
$$

  *****  SOME WEATHER IN NEARBY STATES *****

CITY           SKY/WX    TMP DP  RH WIND       PRES   REMARKS
GLASGOW MT     CLOUDY    72  44  36 S10       29.72S
GREAT FALLS MT CLOUDY    75  39  27 S8        29.76S
CHEYENNE WY    CLOUDY    69  39  33 S6        30.12R
SCOTTSBLUFF NE CLEAR     69  54  58 E8        29.98R
OMAHA NE       PTCLDY    75  67  76 E6        30.01R
DES MOINES IA  MOCLDY    75  69  81 SE5       30.03R
DAVENPORT IA   CLEAR     72  69  90 NE6       30.05R
CHICAGO IL     CLOUDY    77  70  79 W5        30.06R
EAU CLAIRE WI  CLOUDY    66  65  96 S5        30.04R
LA CROSSE WI   CLOUDY    69  67  93 SE3       30.04R
$$

  *****  SOME NATIONAL WEATHER *****

CITY           SKY/WX    TMP DP  RH WIND       PRES   REMARKS
LA GUARDIA NY  PTCLDY    81  58  45 SE5       30.21S
RALEIGH NC     CLOUDY    75  74  96 CALM      30.14R
ATLANTA GA     PTCLDY    85  71  63 E12       30.10R HX  90
NEW ORLEANS LA MOCLDY    82  77  84 NE5       29.97R HX  90
OKLAHOMA CITY  CLOUDY    78  69  73 SE5       29.99S
ALBUQUERQUE NM CLOUDY    68  50  52 N8        30.19R
SALT LAKE CITY PTCLDY    83  28  13 N6        29.99S
LOS ANGELES CA PTCLDY    68  59  73 W17       29.94S
BOISE ID       CLEAR     87  31  13 N6        29.84F
SEATTLE WA     PTCLDY    66  52  60 W14       29.93S
$$

*** WEATHER ACROSS MANITOBA...SASKATCHEWAN AND ONTARIO ***
                ***ONTARIO***

CITY           SKY/WX    TMP DP  RH WIND       PRES   REMARKS
GERALDTON      MOCLDY    63  55  77 S7        30.07R
THUNDER BAY    CLOUDY    61  61 100 E5        30.05S
SIOUX LOOKOUT  LGT RAIN  57  55  94 S6        30.00R
TORONTO        CLOUDY    73  59  60 SE8       30.14R
BIG TROUT LK   PTCLDY    64  55  72 SE6       29.96R
PICKLE LAKE    CLOUDY    64  55  72 CALM      29.99S
DRYDEN         CLOUDY    57  55  94 S7        29.99R
KENORA         PTCLDY    57  55  94 SE6       29.98
$$
                *** MANITOBA***

CITY           SKY/WX    TMP DP  RH WIND       PRES   REMARKS
BRANDON        PTCLDY    64  50  59 SE2       29.88S
DAUPHIN        CLEAR     63  57  82 SE8       29.85R
ISLAND LAKE    MOCLDY    63  59  88 CALM      29.89S
PILOT MOUND      N/A     63  50  63 CALM        N/A
THE PAS        CLOUDY    61  55  82 SE5       29.82R
THOMPSON       MOCLDY    57  54  88 E2        29.84S
WINNIPEG       PTCLDY    63  59  88 S8        29.90R
LYNN LAKE      MOCLDY    61  52  72 MISG      29.81S
CHURCHILL      MOCLDY    55  52  88 SE9       29.90R
GILLAM         PTCLDY    63  54  72 E3        29.89R
$$
                ***SASKATCHEWAN***

CITY           SKY/WX    TMP DP  RH WIND       PRES   REMARKS
ESTEVAN        PTCLDY    63  46  55 E8        29.81S
KINDERSLEY     MOCLDY    68  59  73 E8        29.57F
LLOYDMINSTER   MOCLDY    61  57  88 N6        29.59S
PRINCE ALBERT  CLOUDY    66  52  59 SE12      29.66F
REGINA         MOCLDY    68  45  42 SE13      29.73S
YORKTON        CLEAR     61  50  67 SE8       29.81R   C1F1C2F2C3F3C4F4C5F5C6F6C7F7C8F8C9F9CaFaCbFbCcFcCdFdCe!



USA.gov is the U.S. government's official web portal to all federal, state and local government web resources and services.